This demonstration page uses our WeatherBlox Daily Observations layout. Learn more.

Left ArrowRight Arrow

30.21309, -93.2044

Hourly Observations for October 20, 2015

Temp ( °F °C ) Dew Point ( °F °C ) Humidity (%) Winds ( mph kmh ) Pressure ( in mb ) Visibility ( mi km ) Precip ( " mm )
12:15 am 00:15 Clear 62 16.6 59 14.8 89 89 E 3 6 30.18 1022 10 16 0.00 0.00
12:35 am 00:35 Clear 60 15.5 57 14.1 91 91 E 3 6 30.18 1022 10 16 0.00 0.00
12:55 am 00:55 Clear 60 15.5 58 14.3 93 93 Calm 30.18 1022 10 16 0.00 0.00
1:15 am 01:15 Clear 58 14.6 57 14.1 97 97 Calm 30.18 1022 10 16 0.00 0.00
1:35 am 01:35 Clear 60 15.5 58 14.2 92 92 Calm 30.18 1022 10 16 0.00 0.00
1:55 am 01:55 Clear 60 15.8 58 14.3 91 91 E 5 7 30.18 1022 10 16 0.00 0.00
2:15 am 02:15 Clear 61 16 58 14.3 90 90 Calm 30.18 1022 10 16 0.00 0.00
2:35 am 02:35 Clear 60 15.8 58 14.2 90 90 ENE 3 6 30.18 1022 10 16 0.00 0.00
2:55 am 02:55 Clear 61 15.9 58 14.2 90 90 ENE 5 7 30.18 1022 10 16 0.00 0.00
3:15 am 03:15 Partly Cloudy 60 15.8 58 14.5 92 92 ENE 5 7 30.18 1022 10 16 0.00 0.00
3:35 am 03:35 Partly Cloudy 61 16 58 14.7 92 92 ENE 3 6 30.15 1021 10 16 0.00 0.00
3:55 am 03:55 Mostly Cloudy 62 16.4 59 15 91 91 ENE 3 6 30.15 1021 10 16 0.00 0.00
4:15 am 04:15 Mostly Cloudy 61 15.9 58 14.7 93 93 ENE 5 7 30.15 1021 10 16 0.00 0.00
4:35 am 04:35 Partly Cloudy 61 16 59 14.8 93 93 ENE 6 9 30.15 1021 10 16 0.00 0.00
4:55 am 04:55 Clear 60 15.8 58 14.7 93 93 NE 5 7 30.15 1021 10 16 0.00 0.00
5:15 am 05:15 Mostly Cloudy 60 15.8 58 14.7 93 93 ENE 3 6 30.15 1021 10 16 0.00 0.00
6:00 am 06:00 Partly Cloudy 61 16 59 15 94 94 E 7 11 30.15 1021 10 16 0.00 0.00
6:45 am 06:45 Mostly Clear 61 16 59 15 94 94 E 7 11 30.15 1021 10 16 0.00 0.00
7:50 am 07:50 Mostly Cloudy 63 17 59 15 88 88 ENE 5 7 30.18 1022 10 16 0.00 0.00
8:55 am 08:55 Partly Cloudy 66 19 61 16 83 83 E 13 20 30.18 1022 10 16 0.00 0.00
9:47 am 09:47 Partly Cloudy with Smoke 72 22 63 17 73 73 ESE 12 19 30.18 1022 7 11 0.00 0.00
10:50 am 10:50 Partly Cloudy with Smoke 75 24 63 17 65 65 ESE 12 19 30.21 1023 7 11 0.00 0.00
11:55 am 11:55 Mostly Cloudy 79 26 63 17 58 58 E 13 20 30.18 1022 10 16 0.00 0.00
12:45 pm 12:45 Mostly Cloudy 81 27 63 17 54 54 E 12 19 30.15 1021 10 16 0.00 0.00
1:55 pm 13:55 Mostly Cloudy 82 28 61 16 48 48 SE 12 19 30.12 1020 10 16 0.00 0.00
2:50 pm 14:50 Cloudy 82 28 61 16 48 48 ESE 9 15 30.09 1019 10 16 0.00 0.00
3:50 pm 15:50 Mostly Cloudy 81 27 66 19 62 62 SSE 12 19 30.09 1019 10 16 0.00 0.00
4:50 pm 16:50 Mostly Cloudy 81 27 64 18 58 58 SE 9 15 30.09 1019 10 16 0.00 0.00
5:50 pm 17:50 Mostly Cloudy 79 26 66 19 65 65 SSE 8 13 30.09 1019 10 16 0.00 0.00
6:50 pm 18:50 Mostly Cloudy 75 24 66 19 74 74 SE 6 9 30.09 1019 10 16 0.00 0.00
7:50 pm 19:50 Mostly Clear 73 23 66 19 78 78 SE 7 11 30.12 1020 10 16 0.00 0.00
8:50 pm 20:50 Partly Cloudy 73 23 68 20 83 83 SE 12 19 30.12 1020 10 16 0.00 0.00
9:50 pm 21:50 Mostly Cloudy 72 22 68 20 88 88 SE 8 13 30.12 1020 10 16 0.00 0.00
10:15 pm 22:15 Cloudy 72 22 68 20 88 88 SE 10 17 30.12 1020 10 16 0.00 0.00
10:35 pm 22:35 Mostly Cloudy 71 21.6 68 20 91 91 ESE 8 13 30.12 1020 10 16 0.00 0.00
10:55 pm 22:55 Mostly Cloudy 71 21.5 68 19.9 91 91 ESE 9 15 30.12 1020 10 16 0.00 0.00
11:15 pm 23:15 Partly Cloudy 71 21.5 68 19.8 90 90 ESE 8 13 30.12 1020 10 16 0.00 0.00
11:35 pm 23:35 Clear 70 21.2 68 19.8 92 92 ESE 8 13 30.12 1020 10 16 0.00 0.00
11:55 pm 23:55 Clear 70 21 67 19.6 92 92 ESE 7 11 30.15 1021 10 16 0.00 0.00

Powered by AerisWeather